Location: Rimouski
(48.4330°N, 68.5170°W)
Time: 19:16:34
(UTC-05:00)

Daily predictions for brighter satellites

Satellite Brightness Start Highest point End
(mag) Time Altitude Azimuth Time Altitude Azimuth Time Altitude Azimuth
Cosmos 2263 Rocket 2.2 16:08:39 10° SSW 16:14:14 72° ESE 16:19:53 10° NNE
MOZ.5/SAFIR/RUBIN 5/SL-8 4.1 16:09:43 10° N 16:14:22 72° WNW 16:19:01 10° SSW
Thor Agena Rocket 4.5 16:09:54 10° NE 16:14:22 29° E 16:18:51 10° SSE
Cosmos 1606 2.7 16:11:27 10° S 16:15:22 77° E 16:19:18 10° NNE
SMAP 3.6 16:11:18 10° SE 16:15:34 37° ENE 16:19:51 10° N
ATLAS 2AS CENTAUR R/B 3.3 16:10:14 10° NW 16:18:10 51° NE 16:25:45 10° ESE
Okean 3 4.2 16:14:39 10° SSE 16:18:33 35° E 16:22:27 10° NNE
Cosmos 1269 Rocket 4.0 16:14:03 10° NNW 16:19:23 69° ENE 16:24:41 10° SSE
SJ-12 4.4 16:15:49 10° SE 16:19:38 39° ENE 16:23:30 10° N
Cosmos 1125 Rocket 4.1 16:14:44 10° S 16:19:39 40° ESE 16:24:36 10° NE
Meteor 1-10 Rocket 4.5 16:13:46 10° SSW 16:19:42 86° WNW 16:25:41 10° N
Cosmos 1937 Rocket 3.9 16:15:41 10° SSW 16:20:57 68° WNW 16:26:12 10° NNE
SL-8 Rocket 4.4 16:16:52 10° N 16:22:35 38° ENE 16:28:16 10° SE
CZ-4 R/B 1.6 16:22:05 10° SSE 16:26:10 55° ENE 16:30:14 10° N
CSL-04 Debris 4.4 16:20:59 10° SSE 16:26:22 78° WSW 16:31:48 10° NNW
CSL-04 Rocket 4.3 16:23:35 10° S 16:29:00 65° WSW 16:34:30 10° NNW
Cosmos 2251 Rocket 4.3 16:24:27 10° N 16:29:15 31° NE 16:33:58 10° ESE
Meteor 1-27 Rocket 3.8 16:26:00 10° S 16:31:51 75° E 16:37:36 10° NNE
Cosmos 2218 Rocket 4.5 16:26:26 10° N 16:32:19 38° ENE 16:38:04 10° SE
Cosmos 1300 Rocket 4.0 16:30:20 10° NNW 16:34:40 68° W 16:38:57 10° S
Cosmos 2181 Rocket 4.3 16:30:18 10° SSE 16:36:23 51° E 16:42:34 10° NNE
YAOGAN 1 2.7 16:33:01 10° SSE 16:37:14 52° ENE 16:41:27 10° N
Cosmos 1633 2.6 16:33:43 10° N 16:37:21 85° W 16:40:55 10° S
BREEZE-M DEB (TANK) 3.7 16:28:50 10° WSW 16:40:01 82° NNW 16:44:01 13° ENE
ASTEX 1 4.1 16:35:54 10° N 16:40:50 59° W 16:45:45 10° SSW
CZ-3A R/B 4.3 16:16:08 10° SW 16:41:18 89° SSE 16:46:37 13° ENE
Cosmos 1975 4.3 16:38:32 10° NNE 16:41:21 18° ENE 16:44:09 10° ESE
Cosmos 1844 Rocket 3.6 16:36:40 10° SSE 16:41:22 29° ESE 16:45:48 11° NE
MOS 1 4.2 16:36:09 10° SSE 16:41:47 74° ENE 16:47:27 10° NNW
Abrixas 2.5 16:41:51 10° WSW 16:44:49 75° SSE 16:47:01 17° E
ERBS 3.7 16:41:49 10° W 16:44:51 28° NNW 16:47:24 13° NE
OTV 4 3.5 16:47:34 10° SSW 16:48:05 10° S 16:48:37 10° S
Cosmos 1378 Rocket 3.4 16:44:58 10° S 16:49:16 82° E 16:53:36 10° NNE
GEOS 3 Rocket 3.6 16:47:25 10° SE 16:52:29 66° NE 16:57:34 10° NW
Cosmos 2341 Rocket 4.1 16:46:38 10° N 16:52:54 86° W 16:59:07 10° S
SL-27 R/B 2.9 16:50:01 10° N 16:53:32 40° ENE 16:57:00 10° SE
Cosmos 1295 Rocket 4.4 16:47:56 10° N 16:54:08 77° E 17:00:13 10° SSE
Cosmos 1455 Rocket 3.6 16:52:18 10° N 16:56:23 37° ENE 17:00:29 10° SE
COSMOS 2406 3.4 16:55:11 10° NNW 17:00:55 80° WSW 17:06:39 10° SSE
CORIOLIS 4.1 16:56:23 10° SSE 17:01:48 86° ENE 17:07:15 10° NNW
Cosmos 158 Rocket 4.2 16:58:56 10° NNW 17:04:21 82° WSW 17:09:39 10° SSE
ISS -1.6 17:02:38 10° S 17:05:08 20° SE 17:06:08 18° ESE
Cosmos 2278 Rocket 3.4 17:02:30 10° SSE 17:06:42 22° E 17:08:10 20° E
Meteor 1-5 Rocket 4.2 17:06:07 10° NNW 17:11:31 83° W 17:17:00 10° S
CZ-4 R/B 4.4 17:10:01 10° SSE 17:14:09 87° WSW 17:18:21 10° NNW
SPOT 3 Rocket 4.2 17:13:18 10° S 17:18:25 60° WSW 17:23:34 10° NNW
CZ-2C R/B 3.0 17:13:37 10° S 17:18:31 62° W 17:23:36 10° NNW
Cosmos 1484 Rocket 2.6 17:18:20 10° SSE 17:22:05 65° ENE 17:25:48 10° N
ASTRO F (AKARI) 4.1 17:23:44 28° NNE 17:25:17 75° ESE 17:28:24 10° S
ATLAS CENTAUR R/B 3.9 17:22:31 10° WNW 17:25:22 16° NNW 17:28:07 10° NNE
Cosmos 1238 Rocket 2.3 17:22:51 10° S 17:25:31 46° ESE 17:25:31 46° ESE
MONITOR-E 4.3 17:23:44 10° S 17:26:56 81° W 17:30:09 10° NNW
Cosmos 2082 Rocket 2.9 17:22:24 10° NNW 17:27:28 32° NE 17:28:55 28° ENE
Genesis I 3.9 17:26:34 10° NNW 17:30:14 34° NE 17:30:15 34° NE
Nadezhda 3 Rocket 4.5 17:26:42 10° SSE 17:32:13 35° E 17:36:28 16° NNE
IDEFIX/ARIANE 42P 3.5 17:27:31 10° S 17:32:33 49° W 17:37:36 10° NNW
Cosmos 864 Rocket 4.4 17:27:19 10° N 17:33:38 84° E 17:39:57 10° S
Cosmos 1833 Rocket 3.4 17:30:46 10° NNW 17:35:49 32° NE 17:36:28 31° ENE
Meteor 2-21 4.5 17:31:05 10° N 17:37:11 55° ENE 17:43:13 10° SSE
USA 32 4.1 17:32:10 10° S 17:37:24 81° W 17:42:40 10° N
BREEZE M DEB (TANK) 2.8 17:35:54 10° W 17:38:59 83° N 17:42:21 29° E
Spot 2 Rocket 4.3 17:41:31 31° NE 17:41:31 31° NE 17:45:11 10° N
COSMO-SKYMED 1 2.5 17:39:19 27° NNE 17:41:38 66° ESE 17:45:56 10° S
Okean 1 3.4 17:38:00 10° S 17:41:56 51° E 17:42:08 50° E
Cosmos 1544 Rocket 4.1 17:40:01 10° NNW 17:44:24 59° W 17:48:47 10° S
Meteor 1-18 Rocket 4.1 17:40:26 10° S 17:46:03 76° E 17:51:48 10° NNE
USA 234 3.5 17:42:38 26° NE 17:46:30 64° NNW 17:52:56 10° WSW
SL-24 DEB 4.2 17:42:44 10° N 17:47:33 89° ESE 17:52:16 10° S
Cosmos 1500 3.7 17:46:27 10° N 17:54:20 - SSE 17:49:12 44° NNE
Cosmos 1975 Rocket 4.4 17:47:01 10° SW 17:51:02 38° WNW 17:55:06 10° N
Meteor 1-28 Rocket 4.5 17:54:50 29° SSE 17:54:50 29° SSE 17:56:55 10° S
NOSS 3-4 (A) 4.2 17:47:16 10° NW 17:53:38 40° NNE 17:55:14 35° ENE
NOSS 3-4 (C) 4.2 17:47:22 10° NW 17:53:44 40° NNE 17:55:19 35° ENE
Cosmos 2263 Rocket 4.0 17:54:08 10° W 17:58:44 25° NW 18:03:24 10° N
METEOR-M 4.0 17:53:42 10° SSE 17:58:59 67° ENE 18:04:18 10° N
CZ-3B DEB 2.7 17:56:50 10° SW 18:01:15 66° SE 18:05:05 35° ENE
NOAA 12 4.0 17:56:50 10° SSE 18:02:08 83° ENE 18:07:25 10° NNW
Meteor 2-14 Rocket 4.4 17:56:08 10° N 18:02:16 63° ENE 18:08:20 10° SSE
NOSS 3-3 (A) 4.2 17:58:11 10° SSW 18:04:06 47° ESE 18:04:55 45° E
NOSS 3-3 (C) 4.3 17:58:18 10° S 18:04:12 47° ESE 18:04:58 45° E
Cosmos 1536 Rocket 3.7 18:02:55 10° SSW 18:07:22 77° W 18:09:13 35° N
ATLAS 2AS CENTAUR R/B 3.6 18:01:34 10° NW 18:09:28 58° WSW 18:16:53 10° SSE
Cosmos 1812 3.4 18:07:21 10° SSW 18:11:08 53° WNW 18:12:08 40° NNW
Meteor 2-21 Rocket 4.3 18:10:23 10° N 18:16:39 86° E 18:22:50 10° S
Cosmos 1975 3.8 18:14:14 10° NNW 18:18:10 47° W 18:22:04 10° SSW
Resurs 01 Rocket 4.0 18:22:38 13° N 18:22:38 13° N 18:23:10 10° N
Meteor 2-16 Rocket 4.3 18:17:04 10° N 18:23:12 80° E 18:29:17 10° SSE
Cosmos 1844 Rocket 3.3 18:19:31 10° SW 18:24:59 52° NW 18:27:30 30° N
Timation 2 Rocket 4.0 18:18:30 10° NNW 18:25:18 85° ENE 18:28:08 39° SSE
Cosmos 1535 Rocket 4.3 18:20:15 10° N 18:26:38 75° E 18:32:54 10° SSE
Cosmos 1844 4.1 18:26:26 10° SW 18:31:55 60° WNW 18:33:29 43° N
Cosmos 1934 Rocket 4.3 18:27:50 10° N 18:32:26 50° NNE 18:32:26 50° NNE
FengYun 1-2 T 4.2 18:40:12 78° NNW 18:40:12 78° NNW 18:45:30 10° NNW
ISS -0.4 18:38:01 10° WSW 18:38:49 16° WSW 18:38:49 16° WSW
Cosmos 2239 Rocket 4.5 18:39:32 10° N 18:45:48 80° W 18:51:59 10° S
BREEZE-M R/B 4.2 18:40:47 10° SW 18:47:38 52° SSW 18:47:38 52° SSW
Cosmos 2278 Rocket 2.4 18:44:36 10° SW 18:50:04 68° WNW 18:50:04 68° WNW
Meteor 1-13 Rocket 4.4 18:45:26 10° SSW 18:50:26 67° SW 18:50:26 67° SW
Cosmos 1821 Rocket 4.0 18:47:27 10° NNW 18:53:33 74° W 18:54:31 62° SSW
Cosmos 2082 Rocket 3.1 19:06:19 10° NW 19:10:50 46° WNW 19:10:50 46° WNW
Cosmos 1833 Rocket 3.9 19:14:32 10° NW 19:18:13 38° WNW 19:18:13 38° WNW
USA 234 4.2 19:29:59 40° NNW 19:29:59 40° NNW 19:35:02 10° WNW
CZ-3B DEB 4.3 20:30:24 10° W 20:34:10 41° WNW 20:34:10 41° WNW
